Weather History for Lowell, ID

Change the Weather History Date:

Tuesday, May 12, 2009

  Actual Average Record
Temperature  
Mean Temperature 44 °F -  
Max Temperature 48 °F 64 °F 88 °F (2013)
Min Temperature 39 °F 41 °F 34 °F (2012)
Degree Days  
Heating Degree Days 22    
Moisture  
Dew Point 42 °F    
Average Humidity 93    
Maximum Humidity 100    
Minimum Humidity 85    
Precipitation  
Precipitation 0.81 in - - ()
Sea Level Pressure  
Sea Level Pressure 29.96 in    
Wind  
Wind Speed 0 mph (NW)    
Max Wind Speed 5 mph    
Max Gust Speed -    
Averages and records for this station are not official NWS values.
T = Trace of Precipitation, MM = Missing Value Source: NWS Daily Summary

Daily Weather History Graph

Daily Weather History Graph

Search for Another Location

Airport:

Trip Planner

Search our weather history database for the weather conditions in past years. The results will help you decide how hot, cold, wet, or windy it might be!

Date:

Astronomy

May. 12, 2009 Rise Set
Actual Time 6:13 AM MDT 9:05 PM MDT
Civil Twilight 5:38 AM MDT 9:40 PM MDT
Nautical Twilight 4:53 AM MDT 10:24 PM MDT
Astronomical Twilight 4:01 AM MDT 11:17 PM MDT
Moon 12:11 AM MDT (5/12) 8:19 AM MDT (5/12)
Length of Visible Light 16h 01m
Length of Day
14h 52m
Waning Gibbous, 88% of the Moon is Illuminated
May 12
Waning Gibbous
May 17
Last Quarter
May 24
New
May 30
First Quarter
Jun 7
Full

Hourly Weather History & Observations

Time (MDT) Temp. Windchill Dew Point Humidity Pressure Visibility Wind Dir Wind Speed Gust Speed Precip Events Conditions
12:52 AM 48.9 °F - 46.9 °F 93% 29.84 in - Calm Calm - N/A   Unknown
1:52 AM 48.0 °F - 46.0 °F 93% 29.83 in - Calm Calm - N/A   Unknown
2:52 AM 48.0 °F - 45.0 °F 89% 29.81 in - Calm Calm - N/A   Unknown
3:52 AM 46.9 °F - 45.0 °F 93% 29.81 in - Calm Calm - 0.10 in   Unknown
4:52 AM 46.9 °F - 46.0 °F 97% 29.82 in - Calm Calm - 0.16 in   Unknown
5:52 AM 46.0 °F - 45.0 °F 96% 29.83 in - Calm Calm - 0.17 in   Unknown
6:52 AM 45.0 °F - 45.0 °F 100% 29.85 in - Calm Calm - 0.07 in   Unknown
7:52 AM 44.1 °F 42.5 °F 42.1 °F 93% 29.88 in - WSW 3.5 mph - N/A   Unknown
8:52 AM 44.1 °F - 42.1 °F 93% 29.88 in - Calm Calm - N/A   Unknown
9:52 AM 45.0 °F - 43.0 °F 93% 29.90 in - Calm Calm - 0.03 in   Unknown
10:52 AM 43.0 °F 41.3 °F 41.0 °F 93% 29.92 in - North 3.5 mph - 0.04 in   Unknown
11:52 AM 43.0 °F - 41.0 °F 93% 29.95 in - Calm Calm - 0.02 in   Unknown
12:52 PM 44.1 °F - 42.1 °F 93% 29.96 in - Calm Calm - N/A   Unknown
1:52 PM 42.1 °F - 39.0 °F 89% 29.99 in - Calm Calm - 0.04 in   Unknown
2:52 PM 43.0 °F - 39.0 °F 86% 30.00 in - Calm Calm - 0.02 in   Unknown
3:52 PM 44.1 °F - 39.9 °F 85% 30.00 in - Calm Calm - 0.05 in   Unknown
4:52 PM 44.1 °F - 41.0 °F 89% 30.01 in - Calm Calm - 0.02 in   Unknown
5:52 PM 44.1 °F 41.5 °F 42.1 °F 93% 30.02 in - North 4.6 mph - 0.01 in   Unknown
6:52 PM 43.0 °F - 41.0 °F 93% 30.02 in - Calm Calm - N/A   Unknown
7:52 PM 41.0 °F - 39.0 °F 93% 30.09 in - Calm Calm - 0.08 in   Unknown
8:52 PM 39.9 °F - 39.0 °F 97% 30.11 in - Calm Calm - N/A   Unknown
9:52 PM 39.0 °F - 37.9 °F 96% 30.13 in - Calm Calm - N/A   Unknown
10:52 PM 39.9 °F - 39.0 °F 97% 30.14 in - Calm Calm - N/A   Unknown
11:52 PM 39.9 °F - 39.0 °F 97% 30.16 in - Calm Calm - N/A   Unknown